Regional Weather Roundup
Issued by NWS

Home | Current Version | Previous Version | Graphics & Text | Print | Product List | Glossary On
Versions: 1 2 3 4 5 6 7 8 9 10 11 12 13 14 15 16 17 18 19 20 21 22 23 24 25 26 27 28 29 30 31 32 33 34 35 36 37 38 39 40 41 42 43 44 45 46 47 48 49 50
000
ASUS43 KMKX 242021
RWRWI

WISCONSIN REGIONAL WEATHER ROUNDUP
NATIONAL WEATHER SERVICE MILWAUKEE/SULLIVAN WI
200 PM CST MON NOV 24 2014

NOTE: "FAIR" INDICATES FEW OR NO CLOUDS BELOW 12,000 FEET WITH NO
SIGNIFICANT WEATHER AND/OR OBSTRUCTIONS TO VISIBILITY.

WIZ001-002-006>008-014>016-023>028-242100-
NORTHWEST WISCONSIN

CITY           SKY/WX    TMP DP  RH WIND       PRES   REMARKS
SUPERIOR ARPT  CLOUDY    25  19  78 N13G24    29.46R WCI  13
ASHLAND        SNOW      26  24  92 N10       29.40R VSB 1/2 WCI  16
HAYWARD        LGT SNOW  27  24  89 VRB6      29.36R VSB 1   WCI  20
SIREN          CLOUDY    24  19  80 NW17G28   29.45R HAZE    WCI  10
CUMBERLAND     LGT SNOW  27  21  80 NW23G31   29.38R WCI  12
RICE LAKE      LGT SNOW  27  22  84 W15G22    29.39R WCI  15
CHETEK         LGT SNOW  26  23  89 W12G20    29.37R WCI  16
LADYSMITH      LGT SNOW  31  29  94 NW15      29.32R VSB 3/4 WCI  20
EAU CLAIRE     LGT SNOW  26  22  84 W16       29.38R VSB 1   WCI  14
MENOMONIE      LGT SNOW  26  22  84 W21G28    29.41R WCI  12
NEW RICHMOND   CLOUDY    23  19  85 NW18G26   29.45R WCI   9
OSCEOLA        CLOUDY    24  19  81 NW16G26   29.50R WCI  11
$$

WIZ003>005-009-010-017-018-242100-
NORTH CENTRAL WISCONSIN

CITY           SKY/WX    TMP DP  RH WIND       PRES   REMARKS
MANITOWISH WTR LGT SNOW  26  24  94 N14G23    29.24R VSB 1   WCI  14
ARBOR VITAE    LGT SNOW  32  29  89 N15G24    29.23R VSB 3/4 WCI  21
WOODRUFF       LGT SNOW  32  29  89 N15G24    29.23R VSB 3/4 WCI  21
RHINELANDER    SNOW      28  26  92 N10G18    29.21R VSB 1/4 WCI  19
EAGLE RIVER    LGT SNOW  26  21  80 N22G29    29.21R WCI  12
LAND O LAKES   LGT SNOW  26  22  87 N10G20    29.22R WCI  15
PHILLIPS       LGT SNOW  28  26  93 N10G21    29.26R VSB 3/4 WCI  19
TOMAHAWK       LGT SNOW  30  28  94 NW10G24   29.23R VSB 3/4 WCI  21
MEDFORD        SNOW      30  29  95 NW10      29.24R VSB 1/2 WCI  21
MERRILL        SNOW      32  31  97 NW10G17   29.21R VSB 1/2 WCI  24
$$

WIZ029-030-035-036-043>047-242100-
CENTRAL WISCONSIN

CITY           SKY/WX    TMP DP  RH WIND       PRES   REMARKS
WAUSAU         HVY SNOW  32  32 100 NW8       29.19R VSB 1/4 WCI  25
MOSINEE        SNOW      32  32 100 NW17      29.21R VSB 1/2 WCI  21
MARSHFIELD     LGT SNOW  30  27  88 NW18G28   29.25R VSB 3/4 WCI  18
STEVENS POINT  MIX PCPN  30  30  98 W9G17     29.22R VSB 1/2 WCI  22
WAUPACA        SNOW      35  33  94 W9        29.19R VSB 1/2 WCI  27
WAUTOMA        SNOW      32  30  93 W16G25    29.25R VSB 1/2 WCI  21
WISC RAPIDS    HVY SNOW  30  27  88 W15G26    29.27R WCI  19
CAMP DOUGLAS   SNOW      28  28 100 W22G28    29.32R VSB 1/4 WCI  15
$$

WIZ011>013-019>022-031-037>040-048>050-242100-
NORTHEAST WISCONSIN

CITY           SKY/WX    TMP DP  RH WIND       PRES   REMARKS
ANTIGO         SNOW      31  31  99 N17       29.17R VSB 1/2 WCI  20
SHAWANO        RAIN      37  36  93 W9        29.15R WCI  31
OCONTO         CLOUDY    38  36  94 N3        29.13R
STURGEON BAY   CLOUDY    37  34  87 N15       29.13R WCI  28
GREEN BAY      LGT RAIN  40  38  93 NW13      29.15R FOG     WCI  32
MANITOWOC      LGT RAIN  41  39  93 W10       29.14R
APPLETON       LGT SNOW  34  34 100 W12       29.18R WCI  25
CLINTONVILLE   LGT RAIN  34  32  93 NW12      29.16R WCI  25
OSHKOSH        SNOW      33  31  92 W13G22    29.18R VSB 1/4 WCI  24
$$

WIZ032>034-041-042-053>061-242100-
SOUTHWEST WISCONSIN

CITY           SKY/WX    TMP DP  RH WIND       PRES   REMARKS
LA CROSSE      LGT SNOW  28  22  78 W15       29.42R WCI  16
SPARTA         LGT SNOW  28  26  94 W9G17     29.38R WCI  19
VIROQUA        CLOUDY    25  25 100 W14       29.38R WCI  13
BOSCOBEL       LGT SNOW  27  22  81 SW12      29.44R WCI  17
PRAIRIE DU CHI CLOUDY    25  19  78 W20G26    29.47R WCI  11
PLATTEVILLE    CLOUDY    26  23  89 W23G30    29.45R WCI  11
$$

WIZ056-057-062-063-064-067-068-242100-
SOUTH CENTRAL WISCONSIN

CITY           SKY/WX    TMP DP  RH WIND       PRES   REMARKS
REEDSBURG      LGT SNOW  28  26  93 W13G23    29.33R VSB 1   WCI  17
BARABOO/DELLS  LGT SNOW  29  27  92 W13       29.31R VSB 3/4 WCI  18
LONE ROCK      LGT SNOW  32  25  75 W17       29.39R VSB 3/4 WCI  21
MINERAL POINT  LGT SNOW  28  25  86 W20G28    29.38R WCI  15
MADISON        SNOW      30  27  88 W10G20    29.32R VSB 1/2 WCI  21
MIDDLETON      CLOUDY    31  29  94 W17G26    29.34R VSB 1   WCI  19
WATERTOWN      LGT SNOW  31  31 100 W16G24    29.28R VSB 3/4 WCI  20
MONROE         SNOW      28  27  93 W30G37    29.39R VSB 1/2 WCI  13
JANESVILLE     LGT SNOW  30  28  93 W18G26    29.36R VSB 3/4 WCI  18
$$

WIZ051-052-058>065-066-070>072-242100-
SOUTHEAST WISCONSIN

CITY           SKY/WX    TMP DP  RH WIND       PRES   REMARKS
MILWAUKEE      SNOW      33  30  88 SW13G25   29.27R VSB 1/2 WCI  24
WAUKESHA       LGT SNOW  30  30 100 W13G26    29.28R VSB 1   WCI  20
MILWAUKEE/TIMM LGT SNOW  34  30  86 W17G25    29.25R VSB 1   WCI  23
RACINE         SNOW      32  30  92 W20G28    29.31R VSB 1/4 WCI  20
BURLINGTON     SNOW      28  27  96 SW21G29   29.33R VSB 1/2 WCI  15
KENOSHA        SNOW      31  29  92 W26G36    29.32R VSB 1/4 WCI  17
FOND DU LAC    LGT SNOW  33  30  88 W20G26    29.20R VSB 3/4 WCI  21
SHEBOYGAN      LGT SNOW  34  32  92 W15       29.18R FOG     WCI  24
WEST BEND      LGT SNOW  32  32 100 W17G23    29.22R VSB 1   WCI  21
JUNEAU         LGT SNOW  32  31  96 W17G28    29.26R WCI  21
$$

LSZ147-162-242100-
LAKE SUPERIOR

STATION/POSITION TIME  TEMP    WIND        PRES    WAVE
                       AIR SEA DIR/SP/G            HT/PER
                 (UTC) (F)     (DEG/KT/KT) (MB)    (FT/S)
DEVILS ISLAND    2000   23     340/ 25/ 27  996.7R
PORT WING        2000   26     340/ 19/ 21  997.3R
SAXON HARBOR     1902   28     350/ 19/ 25  993.6R
$$

LMZ867-665-643>646-242100-
LAKE MICHIGAN

STATION/POSITION TIME  TEMP    WIND        PRES    WAVE
                       AIR SEA DIR/SP/G            HT/PER
                 (UTC) (F)     (DEG/KT/KT) (MB)    (FT/S)
CHAMBERS ISLAND  1900   40     340/ 15/ 21  985.4R
N MID LAKE BUOY  1950   38 42  330/ 19/ 23  984.7R   3/ 4
NORTHPORT PIER   1920   39     330/ 20      985.4R
SISTER BAY       1913          350/ 19/ 24   N/A
ALGOMA LAKESHORE 1913          340/  9/ 11   N/A
KEWAUNEE LAKESHO 2000   40     300/  7/ 11  985.7R
SHEBOYGAN LAKESH 2000   36 38  260/ 20/ 26  988.2R
PORT WASHINGTON  1940   36     260/ 12/ 20  989.8R
MILWAUKEE LAKESH 2000   34     250/ 16/ 22   N/A
S MID LAKE BUOY  1950   34 42  230/ 31/ 37  991.7R   8/ 6
KENOSHA   LAKESH 2000   31     240/ 16/ 30  993.6R
$$

TC  - TEMPERATURE IN CELSIUS
VSB - VISIBILITY IN STATUTE MILES
WCI - WIND CHILL INDEX
HX  - HEAT INDEX




USA.gov is the U.S. government's official web portal to all federal, state and local government web resources and services.